LiveATC.Net - Listen to live air traffic control over the Internet!


ICAO: KBPK  IATA: BPK   Airport: Baxter County Airport
City: Mountain Home   State/Province: Arkansas
Country: United States   Continent: North America
KBPK METAR Weather: KBPK 240553Z AUTO 00000KT 10SM CLR 17/13 A2993 RMK AO2 SLP127 T01670128 10239 20167 402720150 56006 TSNO
KBPK Flight Activity (FlightAware)
KBPK Airport Info   (iFlightPlanner)
KBPK VFR Sectional Chart   (iFlightPlanner) 
KBPK IFR Low Chart   (iFlightPlanner) 

KBPK CTAF
Feed Status: UP   Listeners: 0
Listen in your browser - HTML5 player (in browser, HTML5)
Click here to listen with your own player (launches your MP3 player)
KBPK CTAF Audio Archives
FacilityFrequency
Baxter County CTAF123.000

NOTICE

Unauthorized use prohibited. See LiveATC.net Terms of Service


Find LiveATC Audio Streams


Airport/ARTCC Code

Frequency Search
(e.g., 124.400, 128.75)
Site-wide search
 


Browse LiveATC Feeds
Top 50 LiveATC Feeds
LiveATC Feed Map
Bad Weather Areas

LiveATC FAQ
Offer LiveATC feed
Contact LiveATC.net
Press Inquiries

LiveATC on iPhone
LiveATC on Android

Windows Phone
Windows 8/10

LiveATC Mobile
(Mobile browser)

ATC Audio Archives
Interesting Recordings

LiveATC Forums


Home Page
About LiveATC.net
Make a Donation
Terms of Use
Privacy Policy

Canadian Air Freqs

AIRMETs/SIGMETs

FAA Airport Status
Nat'l Airspace Status
Arrival Demand Charts


Server Software By:
Icecast.org
Liquidsoap